User: anonymous   Login
Location: Plymouth
(43.7570°N, 71.6890°W)
Time: 16:41:36
(UTC-04:00)
Language:

COSMOS 2406 - Orbit

View from above orbital plane
View from above orbital plane
View from above satellite
View from above satellite

Ground track
Ground track

The orbit data is extracted from the following two-line orbital elements,

1 28352U 04021A   17142.52697503 -.00000283 +00000-0 -12963-3 0  9998
2 28352 071.0016 178.2844 0014341 149.2464 210.9500 14.11620739667183
Epoch (UTC): 22 May 2017 12:38:50
Eccentricity: 0.0014341
inclination: 71.0016°
perigee height: 843 km
apogee height: 864 km
right ascension of ascending node: 178.2844°
argument of perigee: 149.2464°
revolutions per day: 14.11620739
mean anomaly at epoch: 210.9500°
orbit number at epoch: 66718

The dashed part of the orbit path shows where the satellite is in the earth's shadow,  

DLR